Location: İstanbul
(41.0082°N, 28.9784°E)
Time: 22:34:57
(UTC+03:00)

PRISM - Visible Passes

Search period start: 22 April 2024 00:00
Search period end: 02 May 2024 00:00
Orbit: 507 x 527 km, 98.2° (Epoch: 21 April)

Date Brightness Start Highest point End Pass type
(mag) Time Alt. Az. Time Alt. Az. Time Alt. Az.
22 Apr ? 21:05:45 10° S 21:09:26 62° WSW 21:13:08 10° NNW visible
23 Apr ? 20:51:08 10° SSE 20:54:52 84° ENE 20:58:36 10° NNW visible
24 Apr ? 20:36:38 10° SSE 20:40:14 52° ENE 20:43:53 10° N visible
25 Apr ? 20:22:13 10° SE 20:25:35 34° ENE 20:28:59 10° N visible
25 Apr ? 21:57:26 10° SW 21:59:41 15° W 22:01:55 10° WNW visible
26 Apr ? 21:41:47 10° SSW 21:44:46 23° W 21:47:46 10° NW visible
27 Apr ? 21:26:25 10° SSW 21:29:50 35° W 21:33:16 10° NNW visible
28 Apr ? 21:11:12 10° S 21:14:50 56° WSW 21:18:31 10° NNW visible
29 Apr ? 20:56:06 10° SSE 20:59:49 90° NNW 21:03:33 10° NNW visible
30 Apr ? 20:41:06 10° SSE 20:44:44 56° ENE 20:48:23 10° N visible
01 May ? 20:26:13 10° SE 20:29:37 35° ENE 20:33:02 10° N visible
01 May ? 22:01:36 10° SW 22:03:42 14° W 22:05:48 10° WNW visible
